Location: Songkhla
(7.2000°N, 100.6000°E)
Time: 19:49:13
(UTC+07:00)

ISS - Pass Details

Date: 25 April 2026
Orbit: 414 x 424 km, 51.6° (Epoch: 19 May)

Event Time Altitude Azimuth Distance (km) Brightness Sun altitude
Rises 00:08:34 0° 219° (SW) 2,336 - -69.7°
Reaches altitude 10° 00:10:39 10° 221° (SW) 1,475 - -69.7°
Maximum altitude 00:13:57 74° 306° (NW) 431 - -69.8°
Drops below altitude 10° 00:17:15 10° 31° (NNE) 1,475 - -69.8°
Sets 00:19:20 0° 33° (NNE) 2,337 - -69.7°
